DW0268 Weather Reports


Display with metric or nautical units.
time (UTC)temp
F
wind
direction
speed
MPH
gust
MPH
rain 1hr
in
rain 24hr
in
rain mn
in
humidity
%
barometer
mb
20260906031530 85 344 0.0 0.0 0.00 0.00 0.00 77 1014.5
20260906030030 85 344 0.0 1.0 0.00 0.00 0.00 75 1014.4
20260906024529 85 344 1.0 2.0 0.00 0.00 0.00 75 1014.4
20260906023028 85 344 0.0 4.0 0.00 0.00 0.00 76 1014.3
20260906021536 88 150 0.0 1.0 0.00 0.00 0.00 71 1014.1
20260906020022 87 150 1.0 3.0 0.00 0.00 0.00 73 1013.7
20260906014521 87 221 0.0 0.0 0.00 0.00 0.00 74 1013.6
20260906013032 89 221 1.0 6.0 0.00 0.00 0.00 72 1013.5
20260906011513 90 119 2.0 3.0 0.00 0.00 0.00 68 1013.2
20260906010013 91 119 1.0 2.0 0.00 0.00 0.00 66 1013.1
20260906004508 92 119 2.0 4.0 0.00 0.00 0.00 63 1013.2
20260906003010 93 113 2.0 4.0 0.00 0.00 0.00 61 1013.0
20260906001600 95 112 0.0 0.0 0.00 0.00 0.00 59 1013.2
20260906000056 96 112 0.0 2.0 0.00 0.00 0.00 56 1013.1
20260905234551 97 111 1.0 2.0 0.00 0.00 0.00 54 1013.2
20260905233048 98 111 0.0 3.0 0.00 0.00 0.00 51 1013.4
20260905231546 99 111 0.0 3.0 0.00 0.00 0.00 50 1013.5
20260905230041 99 109 2.0 4.0 0.00 0.00 0.00 49 1013.5
20260905224537 0 0.0 0.0 0.00 0.00 0.00 1013.4
20260905221556 99 132 3.0 5.0 0.00 0.00 0.00 49 1013.3
20260905220054 98 91 1.0 8.0 0.00 0.00 0.00 51 1013.3
20260905214551 98 91 0.0 8.0 0.00 0.00 0.00 52 1013.4
20260905213050 100 79 5.0 10.0 0.00 0.00 0.00 49 1013.5
20260905211548 100 80 3.0 10.0 0.00 0.00 0.00 50 1013.4
20260905210046 100 84 5.0 14.0 0.00 0.00 0.00 50 1013.5
20260905204540 101 169 2.0 8.0 0.00 0.00 0.00 49 1013.6
20260905203037 100 155 2.0 5.0 0.00 0.00 0.00 50 1013.7
20260905201535 100 113 3.0 6.0 0.00 0.00 0.00 50 1014.0
20260905200035 100 161 2.0 8.0 0.00 0.00 0.00 51 1014.3
20260905194528 98 110 3.0 8.0 0.00 0.00 0.00 53 1014.5
20260905193029 98 104 4.0 7.0 0.00 0.00 0.00 52 1014.7
20260905191530 99 44 2.0 4.0 0.00 0.00 0.00 52 1015.0
20260905190031 99 223 2.0 5.0 0.00 0.00 0.00 51 1015.2
20260905184525 98 278 2.0 4.0 0.00 0.00 0.00 52 1015.4
20260905183018 98 55 3.0 5.0 0.00 0.00 0.00 53 1015.5
20260905181515 98 245 4.0 10.0 0.00 0.00 0.00 54 1015.6
20260905180015 97 259 3.0 9.0 0.00 0.00 0.00 54 1015.6
20260905174509 97 275 3.0 12.0 0.00 0.00 0.00 54 1015.6
20260905173008 96 271 7.0 10.0 0.00 0.00 0.00 56 1015.7
20260905171505 96 321 4.0 10.0 0.00 0.00 0.00 58 1016.0
20260905170002 95 82 2.0 6.0 0.00 0.00 0.00 59 1016.2
20260905164601 95 296 2.0 8.0 0.00 0.00 0.00 61 1016.4
20260905163057 94 36 2.0 8.0 0.00 0.00 0.00 65 1016.5
20260905161553 93 326 5.0 8.0 0.00 0.00 0.00 64 1016.5
20260905160055 93 286 5.0 8.0 0.00 0.00 0.00 65 1016.5
20260905154548 92 266 4.0 7.0 0.00 0.00 0.00 68 1016.5
20260905153059 92 262 3.0 6.0 0.00 0.00 0.00 69 1016.5
20260905151537 90 315 1.0 5.0 0.00 0.00 0.00 72 1016.7
20260905150034 89 290 2.0 6.0 0.00 0.00 0.00 72 1016.7
20260905144530 88 311 2.0 6.0 0.00 0.00 0.00 73 1016.7
20260905143029 88 340 1.0 4.0 0.00 0.00 0.00 75 1016.7
20260905141526 86 330 3.0 5.0 0.00 0.00 0.00 76 1016.8
20260905140021 86 338 1.0 4.0 0.00 0.00 0.00 79 1016.5
20260905134516 84 344 2.0 4.0 0.00 0.00 0.00 81 1016.6
20260905133013 82 355 1.0 3.0 0.00 0.00 0.00 85 1016.3
20260905131511 80 355 1.0 3.0 0.00 0.00 0.00 88 1016.2
20260905130009 78 348 0.0 3.0 0.00 0.00 0.00 91 1016.2
20260905124517 77 346 3.0 4.0 0.00 0.00 0.00 92 1016.0
20260905123003 76 151 1.0 2.0 0.00 0.00 0.00 93 1016.2
20260905121502 75 258 0.0 3.0 0.00 0.00 0.00 93 1016.0
20260905120001 75 247 2.0 3.0 0.00 0.00 0.00 93 1015.7
20260905114600 74 246 1.0 2.0 0.00 0.00 0.00 93 1015.7
20260905113059 75 246 1.0 2.0 0.00 0.00 0.00 92 1015.5
20260905111557 75 246 1.0 3.0 0.00 0.00 0.00 92 1015.5
20260905110059 75 213 0.0 2.0 0.00 0.00 0.00 92 1015.5
20260905104557 75 213 0.0 0.0 0.00 0.00 0.00 92 1015.4
20260905103056 76 213 0.0 0.0 0.00 0.00 0.00 91 1015.5
20260905101553 76 213 0.0 0.0 0.00 0.00 0.00 91 1015.5
20260905100113 76 213 0.0 0.0 0.00 0.00 0.00 91 1015.4
20260905094550 76 213 0.0 1.0 0.00 0.00 0.00 90 1015.3
20260905093049 76 205 2.0 3.0 0.00 0.00 0.00 89 1015.4
20260905091545 77 205 0.0 1.0 0.00 0.00 0.00 87 1015.3
20260905090103 78 206 0.0 1.0 0.00 0.00 0.00 86 1015.3
20260905084542 78 205 0.0 1.0 0.00 0.00 0.00 87 1015.1
20260905083047 78 205 0.0 2.0 0.00 0.00 0.00 86 1015.2
20260905081547 78 207 0.0 1.0 0.00 0.00 0.00 86 1015.4
20260905080046 78 207 0.0 0.0 0.00 0.00 0.00 85 1015.3
20260905074538 78 207 0.0 1.0 0.00 0.00 0.00 85 1015.3
20260905073038 79 207 0.0 3.0 0.00 0.00 0.00 83 1015.3
20260905071533 79 207 0.0 1.0 0.00 0.00 0.00 83 1015.4
20260905070032 80 207 0.0 0.0 0.00 0.00 0.00 82 1015.5
20260905064528 81 207 0.0 1.0 0.00 0.00 0.00 83 1015.5
20260905063028 81 207 0.0 2.0 0.00 0.00 0.00 81 1015.6
20260905061526 81 207 0.0 0.0 0.00 0.00 0.00 82 1015.7
20260905060032 81 207 0.0 0.0 0.00 0.00 0.00 81 1015.6
20260905054533 82 207 0.0 1.0 0.00 0.00 0.00 81 1015.7
20260905053021 82 207 0.0 2.0 0.00 0.00 0.00 80 1015.7
20260905051526 83 207 0.0 3.0 0.00 0.00 0.00 79 1015.8
20260905050017 83 207 0.0 1.0 0.00 0.00 0.00 77 1015.7
20260905044514 83 207 0.0 2.0 0.00 0.00 0.00 76 1015.8
20260905043013 84 207 0.0 3.0 0.00 0.00 0.00 76 1015.8
20260905041513 84 207 0.0 1.0 0.00 0.00 0.00 77 1015.8
20260905040013 84 207 0.0 0.0 0.00 0.00 0.00 77 1015.7
20260905034512 84 207 0.0 0.0 0.00 0.00 0.00 77 1015.8
20260905033011 84 207 0.0 0.0 0.00 0.00 0.00 76 1016.0